Regional Weather Roundup
Issued by NWS

Home | Current Version | Previous Version | Graphics & Text | Print | Product List | Glossary On
Versions: 1 2 3 4 5 6 7 8 9 10 11 12 13 14 15 16 17 18 19 20 21 22 23 24 25 26 27 28 29 30 31 32 33 34 35 36 37 38 39 40 41 42 43 44 45 46 47 48 49 50
000
ASUS43 KLMK 020002
RWRKY
KENTUCKY REGIONAL WEATHER ROUNDUP
NATIONAL WEATHER SERVICE LOUISVILLE KY
700 PM EST THU DEC 01 2016

NOTE "FAIR" INDICATES FEW OR NO CLOUDS BELOW 12,000 FEET
WITH NO SIGNIFICANT WEATHER AND/OR OBSTRUCTIONS TO VISIBILITY.

KYZ001>023-026-027-061>063-070>075-020100-
WESTERN AND SOUTH CENTRAL KENTUCKY

CITY           SKY/WX    TMP DP  RH WIND       PRES   REMARKS
PADUCAH        CLEAR     40  28  62 CALM      30.07R
HENDERSON      CLEAR     37  27  65 CALM      30.06R
OWENSBORO      CLEAR     40  30  67 NW3       30.06R
HOPKINSVILLE   CLEAR     43  27  52 W6        30.06R
BOWLING GREEN  CLEAR     45  28  51 SW5       30.07R
GLASGOW        CLEAR     38  30  73 CALM      30.05R
$$

KYZ024-025-028>034-038-045-046-053-020100-
NORTH CENTRAL KENTUCKY

CITY           SKY/WX    TMP DP  RH WIND       PRES   REMARKS
LOUISVILLE/SDF CLEAR     42  26  53 W8        30.03R
LOUISVILLE/LOU CLEAR     43  27  53 W7        30.04R
FORT KNOX      CLEAR     37  27  66 W5        30.02R WCI  33
$$

KYZ035>037-039>044-047>052-055>060-089>105-020100-
NORTHEAST KENTUCKY

CITY           SKY/WX    TMP DP  RH WIND       PRES   REMARKS
LEXINGTON      CLEAR     40  27  59 SW7       30.02R
COVINGTON      CLEAR     37  28  70 NW8       30.00R WCI  31
FRANKFORT      CLEAR     40  26  57 SW5       30.01R
$$

KYZ054-064>069-076>088-106>120-020100-
SOUTHEAST KENTUCKY

CITY           SKY/WX    TMP DP  RH WIND       PRES   REMARKS
JACKSON        CLEAR     41  28  60 SW6       30.01R
LONDON         CLEAR     38  27  64 CALM      30.03R
SOMERSET       CLEAR     41  28  60 CALM      30.05S
MIDDLESBORO    CLEAR     39  32  75 W5        30.03R
MONTICELLO     CLEAR     31  28  89 N7        30.06R WCI  24
$$





USA.gov is the U.S. government's official web portal to all federal, state and local government web resources and services.